APSTAR-7

Last updated on Thu Nov 21 2024 00:02:42 GMT+0000 (Coordinated Universal Time)

1 38107U 12013A 24325.07688414 -.00000101 00000+0 00000+0 0 9991 2 38107 0.0203 56.9058 0002923 197.0232 269.8460 1.00271783 46058
UTC large
Height (km)
Speed (km/s)
/
Latitude / Longitude
Inclination (degrees)
Orbital Period (minutes)
Azimuth
Elevation
Range (km)
Doppler Factor

Next 0 passes for location: London (51.5072 / 0.1276)

Sorry there are no passes over London.